Home   Weather   Damascus   Past weeks
Flag for Syria

Past Weather in Damascus, Syria — Yesterday and Last 2 Weeks

Now
88 °F

Passing clouds.


Feels Like: 85 °F
Forecast: 89 / 56 °F
Wind: 12 mph from Southwest

Location: Damascus Int. Airport

Current Time: Jun 19, 2019 at 12:25:20 pm

Latest Report: Jun 19, 2019 at 12:00 pm


Visibility: N/A

Pressure: 29.86 "Hg (27.64 "Hg at 689m altitude)

Humidity: 25%

Dew Point: 48 °F

Location of DamascusLocation

Past Weather in Damascus — Graph

°F

Damascus Temperature Yesterday

Maximum temperature yesterday: 91 °F (at 3:00 pm)
Minimum temperature yesterday: 63 °F (at 6:00 am)
Average temperature yesterday: 77 °F

High & Low Weather Summary for the Past Weeks

 TemperatureHumidityPressure
High102 °F (Jun 4, 3:00 pm)83% (Jun 13, 5:00 am)30.04 "Hg (Jun 13, 5:00 am)
Low57 °F (Jun 15, 6:00 am)9% (Jun 10, 3:00 pm)29.74 "Hg (Jun 9, 5:00 pm)
Average79 °F39%29.88 "Hg
* Reported Jun 4 11:00 am — Jun 19 11:00 am, Damascus. Weather by CustomWeather, © 2019

Note: Actual official high and low records may vary slightly from our data, if they occured in-between our weather recording intervals... More about our weather records

Advertising

Damascus Weather History for the Previous 24 Hours

Scroll right to see more
 ConditionsComfort  
Time TempWeatherWind HumidityBarometerVisibility
11:00 am
Wed, Jun 19
82 °FPassing clouds.18 mph35%29.89 "HgN/A
10:00 am81 °FSunny.18 mph37%29.89 "Hg10 mi
9:00 am75 °FSunny.18 mph47%29.89 "Hg10 mi
8:00 am72 °FSunny.20 mph57%29.92 "Hg10 mi
7:00 am66 °FSunny.15 mph78%29.89 "Hg10 mi
6:00 am64 °FSunny.12 mph78%29.89 "Hg10 mi
5:00 am64 °FClear.15 mph78%29.89 "Hg10 mi
4:00 am64 °FClear.15 mph73%29.89 "Hg10 mi
3:00 am63 °FClear.12 mph68%29.92 "Hg10 mi
2:00 am68 °FClear.12 mph53%29.92 "Hg10 mi
1:00 am70 °FClear.10 mph50%29.92 "Hg10 mi
12:00 am72 °FClear.13 mph47%29.92 "Hg10 mi
11:00 pm
Tue, Jun 18
73 °FClear.15 mph44%29.95 "Hg10 mi
10:00 pm73 °FClear.15 mph47%29.92 "Hg10 mi
9:00 pm75 °FClear.14 mph47%29.92 "Hg10 mi
8:00 pm79 °FPassing clouds.18 mph39%29.89 "HgN/A
7:00 pm82 °FPassing clouds.22 mph30%29.89 "HgN/A
6:00 pm86 °FPassing clouds.26 mph29%29.89 "HgN/A
5:00 pm90 °FScattered clouds.23 mph24%29.86 "HgN/A
4:00 pm88 °FScattered clouds.14 mph25%29.86 "HgN/A
3:00 pm91 °FScattered clouds.24 mph24%29.89 "HgN/A
2:00 pm88 °FScattered clouds.23 mph27%29.89 "HgN/A
1:00 pm88 °FScattered clouds.16 mph27%29.89 "HgN/A
Weather by CustomWeather, © 2019

See weather overview